| time (UTC) | temp C | wind direction | speed KPH | gust KPH | rain 1hr cm | rain 24hr cm | rain mn cm | humidity % | barometer mb |
| 20260506123059 | 12 | 355 | 6.4 | 16.1 | 0.00 | 0.00 | 0.00 | 71 | 1013.0 |
| 20260506121608 | 12 | 72 | 3.2 | 16.1 | 0.00 | 0.00 | 0.00 | 67 | 1012.9 |
| 20260506120054 | 12 | 5 | 4.8 | 16.1 | 0.00 | 0.00 | 0.00 | 69 | 1012.9 |
| 20260506114551 | 12 | 28 | 6.4 | 16.1 | 0.00 | 0.00 | 0.00 | 68 | 1012.8 |
| 20260506113050 | 12 | 351 | 6.4 | 19.3 | 0.00 | 0.00 | 0.00 | 68 | 1012.8 |
| 20260506111547 | 13 | 38 | 6.4 | 17.7 | 0.00 | 0.00 | 0.00 | 67 | 1012.8 |
| 20260506104551 | 12 | 47 | 6.4 | 16.1 | 0.00 | 0.00 | 0.00 | 72 | 1012.8 |
| 20260506103051 | 11 | 71 | 4.8 | 24.1 | 0.00 | 0.00 | 0.00 | 80 | 1012.8 |
| 20260506101613 | 10 | 27 | 6.4 | 17.7 | 0.00 | 0.00 | 0.00 | 83 | 1012.8 |
| 20260506100051 | 10 | 11 | 4.8 | 14.5 | 0.00 | 0.00 | 0.00 | 85 | 1012.8 |
| 20260506094553 | 10 | 45 | 6.4 | 16.1 | 0.00 | 0.00 | 0.00 | 87 | 1012.8 |
| 20260506093046 | 10 | 22 | 6.4 | 14.5 | 0.00 | 0.00 | 0.00 | 88 | 1012.8 |
| 20260506091544 | 10 | 21 | 1.6 | 9.7 | 0.00 | 0.00 | 0.00 | 86 | 1012.8 |
| 20260506084551 | 10 | 17 | 6.4 | 14.5 | 0.00 | 0.00 | 0.00 | 86 | 1012.5 |
| 20260506083043 | 9 | 18 | 4.8 | 16.1 | 0.00 | 0.00 | 0.00 | 85 | 1012.5 |
| 20260506081552 | 10 | 16 | 6.4 | 16.1 | 0.00 | 0.00 | 0.00 | 82 | 1012.6 |
| 20260506073045 | 10 | 22 | 3.2 | 16.1 | 0.00 | 0.00 | 0.00 | 81 | 1012.4 |
| 20260506071544 | 9 | 360 | 3.2 | 16.1 | 0.00 | 0.00 | 0.00 | 83 | 1012.3 |
| 20260506061552 | 6 | 19 | 3.2 | 8.0 | 0.00 | 0.00 | 0.00 | 92 | 1012.2 |
| 20260506050104 | 5 | 360 | 0.0 | 8.0 | 0.00 | 0.00 | 0.00 | 90 | 1012.2 |
| 20260506044546 | 5 | 360 | 1.6 | 9.7 | 0.00 | 0.00 | 0.00 | 90 | 1012.1 |
| 20260506043044 | 5 | 360 | 1.6 | 9.7 | 0.00 | 0.00 | 0.00 | 89 | 1012.1 |
| 20260506041602 | 5 | 23 | 1.6 | 8.0 | 0.00 | 0.00 | 0.00 | 88 | 1012.1 |
| 20260506040052 | 5 | 355 | 1.6 | 9.7 | 0.00 | 0.00 | 0.00 | 88 | 1012.2 |
| 20260506034552 | 5 | 360 | 1.6 | 6.4 | 0.00 | 0.00 | 0.00 | 87 | 1012.2 |
| 20260506033047 | 6 | 24 | 0.0 | 6.4 | 0.00 | 0.00 | 0.00 | 86 | 1012.3 |
| 20260506031545 | 6 | 355 | 0.0 | 6.4 | 0.00 | 0.00 | 0.00 | 86 | 1012.5 |
| 20260506030043 | 6 | 11 | 1.6 | 6.4 | 0.00 | 0.00 | 0.00 | 86 | 1012.6 |
| 20260506024543 | 6 | 13 | 1.6 | 6.4 | 0.00 | 0.00 | 0.00 | 85 | 1012.7 |
| 20260506023102 | 6 | 25 | 1.6 | 4.8 | 0.00 | 0.00 | 0.00 | 85 | 1012.7 |
| 20260506021548 | 6 | 0 | 1.6 | 6.4 | 0.00 | 0.00 | 0.00 | 85 | 1012.8 |
| 20260506020051 | 7 | 32 | 1.6 | 6.4 | 0.00 | 0.00 | 0.00 | 84 | 1012.9 |
| 20260506014544 | 7 | 44 | 1.6 | 8.0 | 0.00 | 0.00 | 0.00 | 84 | 1013.0 |
| 20260506013056 | 7 | 36 | 1.6 | 8.0 | 0.00 | 0.00 | 0.00 | 83 | 1012.9 |
| 20260506011547 | 7 | 55 | 1.6 | 6.4 | 0.00 | 0.00 | 0.00 | 82 | 1013.0 |
| 20260506010040 | 8 | 0 | 3.2 | 12.9 | 0.00 | 0.00 | 0.00 | 81 | 1013.1 |
| 20260506004546 | 8 | 45 | 3.2 | 9.7 | 0.00 | 0.00 | 0.00 | 81 | 1013.2 |
| 20260506003045 | 8 | 34 | 3.2 | 12.9 | 0.00 | 0.00 | 0.00 | 80 | 1013.1 |
| 20260506001553 | 8 | 40 | 3.2 | 9.7 | 0.00 | 0.00 | 0.00 | 80 | 1013.1 |
| 20260506000044 | 8 | 59 | 4.8 | 14.5 | 0.00 | 0.00 | 0.00 | 80 | 1013.2 |
| 20260505234543 | 9 | 27 | 3.2 | 9.7 | 0.00 | 0.00 | 0.00 | 80 | 1013.2 |
| 20260505233054 | 9 | 35 | 6.4 | 14.5 | 0.00 | 0.00 | 0.00 | 80 | 1013.3 |
| 20260505231549 | 9 | 39 | 3.2 | 16.1 | 0.00 | 0.00 | 0.00 | 81 | 1013.4 |
| 20260505230119 | 9 | 352 | 4.8 | 14.5 | 0.00 | 0.00 | 0.00 | 82 | 1013.5 |
| 20260505224548 | 9 | 48 | 3.2 | 12.9 | 0.00 | 0.00 | 0.00 | 82 | 1013.6 |
| 20260505223050 | 10 | 355 | 3.2 | 12.9 | 0.00 | 0.00 | 0.00 | 82 | 1013.6 |
| 20260505221556 | 10 | 57 | 6.4 | 16.1 | 0.00 | 0.00 | 0.00 | 82 | 1013.6 |
| 20260505220056 | 10 | 340 | 3.2 | 16.1 | 0.00 | 0.00 | 0.00 | 82 | 1013.6 |
| 20260505214551 | 10 | 30 | 4.8 | 14.5 | 0.00 | 0.00 | 0.00 | 82 | 1013.6 |
| 20260505213045 | 10 | 19 | 3.2 | 8.0 | 0.00 | 0.00 | 0.00 | 82 | 1013.6 |
| 20260505211600 | 10 | 49 | 4.8 | 16.1 | 0.00 | 0.00 | 0.00 | 81 | 1013.7 |
| 20260505210043 | 10 | 71 | 4.8 | 16.1 | 0.00 | 0.00 | 0.00 | 81 | 1013.6 |
| 20260505204555 | 10 | 31 | 4.8 | 12.9 | 0.00 | 0.00 | 0.00 | 80 | 1013.5 |
| 20260505203051 | 10 | 355 | 3.2 | 11.3 | 0.00 | 0.00 | 0.00 | 80 | 1013.5 |
| 20260505201549 | 10 | 15 | 3.2 | 8.0 | 0.00 | 0.00 | 0.00 | 79 | 1013.4 |
| 20260505200048 | 10 | 345 | 3.2 | 8.0 | 0.00 | 0.00 | 0.00 | 77 | 1013.4 |
| 20260505194554 | 11 | 36 | 4.8 | 12.9 | 0.00 | 0.00 | 0.00 | 76 | 1013.2 |
| 20260505193101 | 11 | 73 | 4.8 | 12.9 | 0.00 | 0.00 | 0.00 | 75 | 1013.1 |
| 20260505191554 | 11 | 81 | 3.2 | 17.7 | 0.00 | 0.00 | 0.00 | 74 | 1012.8 |
| 20260505190049 | 11 | 55 | 4.8 | 14.5 | 0.00 | 0.00 | 0.00 | 72 | 1012.7 |
| 20260505184549 | 12 | 29 | 4.8 | 16.1 | 0.00 | 0.00 | 0.00 | 70 | 1012.8 |
| 20260505183044 | 12 | 43 | 1.6 | 12.9 | 0.00 | 0.00 | 0.00 | 69 | 1012.5 |
| 20260505181555 | 12 | 44 | 1.6 | 6.4 | 0.00 | 0.00 | 0.00 | 70 | 1012.5 |
| 20260505180050 | 13 | 119 | 1.6 | 8.0 | 0.00 | 0.00 | 0.00 | 69 | 1012.4 |
| 20260505174549 | 13 | 17 | 1.6 | 9.7 | 0.00 | 0.00 | 0.00 | 68 | 1012.3 |
| 20260505173044 | 13 | 355 | 4.8 | 14.5 | 0.00 | 0.00 | 0.00 | 69 | 1012.3 |
| 20260505171552 | 13 | 5 | 1.6 | 12.9 | 0.00 | 0.00 | 0.00 | 69 | 1012.2 |
| 20260505170050 | 13 | 78 | 3.2 | 14.5 | 0.00 | 0.00 | 0.00 | 69 | 1012.3 |
| 20260505164551 | 13 | 45 | 1.6 | 12.9 | 0.00 | 0.00 | 0.00 | 69 | 1012.2 |
| 20260505163051 | 13 | 46 | 3.2 | 12.9 | 0.00 | 0.00 | 0.00 | 69 | 1012.2 |
| 20260505161547 | 13 | 24 | 3.2 | 9.7 | 0.00 | 0.00 | 0.00 | 69 | 1012.1 |
| 20260505153053 | 15 | 355 | 3.2 | 9.7 | 0.00 | 0.00 | 0.00 | 67 | 1012.1 |
| 20260505151549 | 16 | 41 | 6.4 | 16.1 | 0.00 | 0.00 | 0.00 | 64 | 1012.1 |
| 20260505124552 | 18 | 28 | 3.2 | 9.7 | 0.00 | 0.00 | 0.00 | 47 | 1012.0 |